Mount Airy, NC

2:13 AM EDT on September 18, 2019 (GMT -0400)
Mount Airy-Surry County

Weather History for KMWK - July, 2019

Change the Weather History Date:

Saturday, July 13, 2019

  Actual Average (WUND) Record (WUND)
Temperature  
Mean Temperature 80 °F -  
Max Temperature 91 °F - - (-1)
Min Temperature 69 °F - - (-1)
Cooling Degree Days 15    
Growing Degree Days 30 (Base 50)    
Moisture  
Dew Point 71 °F    
Average Humidity 75    
Maximum Humidity 91    
Minimum Humidity 43    
Precipitation  
Precipitation 0.00 in - - ()
Sea Level Pressure  
Sea Level Pressure 30.06 in    
Wind  
Wind Speed 1 mph (NNW)    
Max Wind Speed 7 mph    
Max Gust Speed -    
Visibility 10 miles    
Events      
Averages and records for this station are not official NWS values.
T = Trace of Precipitation, MM = Missing Value Source: NWS Daily Summary

Daily Weather History Graph

Daily Weather History Graph

Search for Another Location

Airport or City:

Astronomy

Jul. 13, 2019 Rise Set
Actual Time 6:14 AM EDT 8:41 PM EDT
Civil Twilight 5:44 AM EDT 9:11 PM EDT
Nautical Twilight 5:07 AM EDT 9:47 PM EDT
Astronomical Twilight 4:26 AM EDT 10:28 PM EDT
Moon 6:03 PM EDT (7/13) 3:31 AM EDT (7/13)
Length of Visible Light 15h 26m
Length of Day
14h 26m
Waxing Gibbous, 90% of the Moon is Illuminated
Jul 13
Waxing Gibbous
Jul 16
Full
Jul 24
Last Quarter
Jul 31
New
Aug 7
First Quarter

Hourly Weather History & Observations

Time (EDT) Temp. Heat Index Dew Point Humidity Pressure Visibility Wind Dir Wind Speed Gust Speed Precip Events Conditions
12:00 AM 72.9 °F - 69.8 °F 90% 30.01 in 7.0 mi Calm Calm - N/A   Clear
12:20 AM 73.0 °F - 70.0 °F 90% 30.01 in 7.0 mi Calm Calm - N/A   Clear
12:40 AM 73.0 °F - 70.0 °F 90% 30.01 in 10.0 mi Calm Calm - N/A   Clear
1:00 AM 72.5 °F - 69.4 °F 90% 30.01 in 7.0 mi Calm Calm - N/A   Clear
1:20 AM 72.7 °F - 69.6 °F 90% 30.00 in 10.0 mi NNW 3.5 mph - N/A   Clear
1:35 AM 73.2 °F - 70.0 °F 90% 30.00 in 10.0 mi Calm Calm - N/A   Clear
2:00 AM 72.5 °F - 69.3 °F 90% 30.00 in 7.0 mi Calm Calm - N/A   Clear
2:20 AM 72.5 °F - 69.4 °F 90% 30.00 in 7.0 mi Calm Calm - N/A   Clear
2:35 AM 72.1 °F - 69.3 °F 91% 30.00 in 7.0 mi Calm Calm - N/A   Clear
3:00 AM 71.6 °F - 68.7 °F 91% 30.01 in 7.0 mi Calm Calm - N/A   Clear
3:20 AM 71.2 °F - 68.4 °F 91% 30.01 in 7.0 mi Calm Calm - N/A   Clear
3:35 AM 71.1 °F - 68.2 °F 91% 30.01 in 5.0 mi Calm Calm - N/A   Clear
3:45 AM 71.1 °F - 68.2 °F 91% 30.02 in 4.0 mi Calm Calm - N/A   Clear
4:40 AM 69.8 °F - 67.1 °F 91% 30.02 in 10.0 mi Calm Calm - N/A   Clear
5:00 AM 69.6 °F - 66.7 °F 91% 30.02 in 10.0 mi Calm Calm - N/A   Clear
5:20 AM 69.8 °F - 67.1 °F 91% 30.02 in 10.0 mi Calm Calm - N/A   Clear
5:35 AM 69.8 °F - 67.1 °F 91% 30.03 in 10.0 mi Calm Calm - N/A   Clear
6:00 AM 69.3 °F - 66.4 °F 91% 30.04 in 10.0 mi Calm Calm - N/A   Clear
6:15 AM 70.7 °F - 67.6 °F 90% 30.04 in 10.0 mi Calm Calm - N/A   Clear
6:40 AM 69.8 °F - 66.9 °F 91% 30.05 in 10.0 mi Calm Calm - N/A   Clear
6:55 AM 69.8 °F - 67.1 °F 91% 30.06 in 10.0 mi Calm Calm - N/A   Clear
7:20 AM 70.7 °F - 67.8 °F 91% 30.07 in 10.0 mi Calm Calm - N/A   Scattered Clouds
7:40 AM 71.1 °F - 68.0 °F 90% 30.07 in 10.0 mi Calm Calm - N/A   Scattered Clouds
8:00 AM 71.4 °F - 68.4 °F 90% 30.08 in 10.0 mi Calm Calm - N/A   Mostly Cloudy
8:20 AM 71.6 °F - 68.5 °F 90% 30.09 in 10.0 mi Calm Calm - N/A   Scattered Clouds
8:40 AM 73.8 °F - 70.5 °F 90% 30.10 in 10.0 mi Calm Calm - N/A   Scattered Clouds
9:00 AM 76.1 °F - 71.4 °F 85% 30.10 in 10.0 mi NW 4.6 mph - N/A   Clear
9:20 AM 77.4 °F - 72.3 °F 84% 30.11 in 10.0 mi NW 4.6 mph - N/A   Clear
9:40 AM 79.2 °F - 73.6 °F 83% 30.10 in 10.0 mi Calm Calm - N/A   Clear
10:00 AM 80.8 °F 86.5 °F 75.0 °F 83% 30.10 in 10.0 mi NW 3.5 mph - N/A   Clear
10:20 AM 81.5 °F 87.6 °F 74.7 °F 80% 30.11 in 10.0 mi Calm Calm - N/A   Clear
10:40 AM 83.5 °F 89.4 °F 72.7 °F 70% 30.11 in 10.0 mi NNE 3.5 mph - N/A   Clear
11:00 AM 83.8 °F 89.2 °F 72.0 °F 67% 30.11 in 10.0 mi North 4.6 mph - N/A   Clear
11:20 AM 84.4 °F 90.0 °F 72.0 °F 66% 30.11 in 10.0 mi Calm Calm - N/A   Scattered Clouds
11:40 AM 84.4 °F 90.0 °F 71.8 °F 66% 30.11 in 7.0 mi Calm Calm - N/A   Scattered Clouds
12:00 PM 85.5 °F 91.8 °F 72.7 °F 65% 30.11 in 10.0 mi Calm Calm - N/A   Clear
12:20 PM 85.6 °F 91.5 °F 71.8 °F 63% 30.11 in 10.0 mi WNW 4.6 mph - N/A   Clear
12:40 PM 86.5 °F 92.9 °F 72.0 °F 62% 30.10 in 10.0 mi NNW 4.6 mph - N/A   Clear
1:00 PM 87.1 °F 93.6 °F 72.0 °F 61% 30.10 in 10.0 mi Calm Calm - N/A   Scattered Clouds
1:20 PM 87.4 °F 92.7 °F 70.3 °F 57% 30.09 in 10.0 mi Calm Calm - N/A   Scattered Clouds
1:40 PM 88.2 °F 94.1 °F 71.1 °F 57% 30.08 in 10.0 mi NE 3.5 mph - N/A   Scattered Clouds
2:00 PM 89.1 °F 93.7 °F 69.4 °F 52% 30.08 in 10.0 mi Calm Calm - N/A   Clear
2:20 PM 90.1 °F 95.3 °F 70.0 °F 51% 30.07 in 10.0 mi North 4.6 mph - N/A   Clear
2:40 PM 89.8 °F 94.6 °F 69.4 °F 51% 30.06 in 10.0 mi WNW 3.5 mph - N/A   Clear
3:00 PM 90.1 °F 94.0 °F 68.2 °F 48% 30.04 in 10.0 mi WNW 5.8 mph - N/A   Clear
3:20 PM 90.5 °F 93.8 °F 67.3 °F 46% 30.04 in 10.0 mi NW 6.9 mph - N/A   Clear
3:40 PM 90.5 °F 93.3 °F 66.6 °F 45% 30.04 in 10.0 mi NNE 4.6 mph - N/A   Clear
4:00 PM 91.2 °F 93.7 °F 65.8 °F 43% 30.04 in 10.0 mi North 5.8 mph - N/A   Clear
4:20 PM 90.1 °F 92.7 °F 66.4 °F 45% 30.05 in 10.0 mi Calm Calm - N/A   Clear
4:40 PM 89.6 °F 93.0 °F 67.5 °F 48% 30.05 in 10.0 mi NW 3.5 mph - N/A   Clear
5:00 PM 90.5 °F 93.8 °F 66.9 °F 46% 30.05 in 10.0 mi Calm Calm - N/A   Clear
5:20 PM 90.7 °F 94.5 °F 68.0 °F 47% 30.04 in 10.0 mi Calm Calm - N/A   Clear
5:40 PM 90.5 °F 94.6 °F 68.4 °F 48% 30.04 in 10.0 mi North 4.6 mph - N/A   Clear
6:00 PM 90.1 °F 92.7 °F 66.0 °F 45% 30.05 in 10.0 mi NNW 3.5 mph - N/A   Clear
6:20 PM 88.5 °F 92.3 °F 68.2 °F 51% 30.06 in 10.0 mi Calm Calm - N/A   Scattered Clouds
6:40 PM 88.2 °F 94.1 °F 71.1 °F 57% 30.06 in 10.0 mi Calm Calm - N/A   Scattered Clouds
7:00 PM 86.9 °F 95.0 °F 73.8 °F 65% 30.07 in 10.0 mi Calm Calm - N/A   Clear
7:20 PM 86.2 °F 95.5 °F 75.6 °F 70% 30.07 in 10.0 mi Calm Calm - N/A   Clear
7:40 PM 85.5 °F 94.6 °F 75.6 °F 72% 30.07 in 10.0 mi Calm Calm - N/A   Clear
8:00 PM 84.6 °F 93.5 °F 75.9 °F 75% 30.07 in 10.0 mi Calm Calm - N/A   Clear
8:20 PM 83.8 °F 92.5 °F 75.9 °F 77% 30.07 in 10.0 mi Calm Calm - N/A   Clear
8:40 PM 83.1 °F 91.0 °F 75.7 °F 78% 30.07 in 10.0 mi Calm Calm - N/A   Clear
9:00 PM 82.4 °F 89.8 °F 75.6 °F 80% 30.08 in 10.0 mi Calm Calm - N/A   Clear
9:20 PM 81.5 °F 88.0 °F 75.6 °F 82% 30.08 in 10.0 mi Calm Calm - N/A   Clear
9:40 PM 81.3 °F 87.4 °F 75.0 °F 81% 30.09 in 10.0 mi Calm Calm - N/A   Clear
10:00 PM 79.9 °F - 75.2 °F 86% 30.10 in 10.0 mi Calm Calm - N/A   Clear
10:20 PM 78.8 °F - 74.5 °F 87% 30.10 in 10.0 mi Calm Calm - N/A   Clear
10:40 PM 77.4 °F - 74.1 °F 90% 30.10 in 10.0 mi Calm Calm - N/A   Clear
11:00 PM 78.8 °F - 74.3 °F 86% 30.10 in 10.0 mi Calm Calm - N/A   Scattered Clouds
11:20 PM 77.4 °F - 74.3 °F 90% 30.10 in 10.0 mi Calm Calm - N/A   Scattered Clouds
11:40 PM 77.9 °F - 74.3 °F 89% 30.11 in 10.0 mi Calm Calm - N/A   Scattered Clouds